Weather in Batkat

Russia / Tomsk District     56°32′59″N   83°52′00″E
temp.,
°C
wind,
m/s
gust,
m/s
humid.,
%
clouds,
%
prec.,
mm/h
press.,
hPa
HPBL,
m
21 june, mon
mon2101:00+7s4108824 0.1 1008190
04:00+5se37960 0.0 1007143
07:00+8se488617 0.0 1007243
10:00+14se566445 0.0 1006757
13:00+17se6752100 0.0 10062154
16:00+12ssw6879100 0.3 1008542
19:00+11e2395100 1.4 1009299
22:00+10ene2397100 0.5 1009117
22 june, tue
tue2201:00+10nne2297100 0.5 100956
04:00+8nne239899 0.0 100872
07:00+10nne2496100 0.0 1008200
10:00+11n559395 0.2 1009474
13:00+12nne5679100 0.3 1009759
16:00+13n5672100 0.1 1010851
19:00+12n3778100 0.2 1010364
22:00+10n4995100 3.3 1010418
23 june, wed
wed2301:00+8n51196100 11.3 1011494
04:00+8n2797100 6.6 1011316
07:00+8w249497 6.8 1012219
10:00+12nw357256 0.1 1012721
13:00+14nw335799 0.3 10131719
16:00+15nnw235326 0.0 10131524
19:00+14ene215920 0.0 1013651
22:00+10ene11705 0.0 101311
24 june, thu
thu2401:00+7ne358624 0.0 101271
04:00+6ene369296 0.0 1011105
07:00+8ne4885100 0.0 1010241
10:00+12ne5767100 0.0 1009688
13:00+15nne5659100 0.0 10081415
16:00+16n6765100 0.0 10071122
19:00+13nne4874100 0.2 1007323
22:00+11n51193100 0.8 1008362
25 june, fri
fri2501:00+10n51194100 1.3 1009358
04:00+10n4109596 0.1 1008385
07:00+10n4897100 0.2 1009379
10:00+10nnw4898100 0.7 1009390
13:00+10nnw3798100 5.0 1011388
16:00+11nw3796100 2.2 1011472
19:00+11wnw3697100 5.2 1012414
22:00+10w3598100 1.7 1013165